Simultaneous Nadir Overpasses (SNOs) Predictions

Prediction of SNOs between AURA and NPP Satellite Orbit:

Table of predicted SNOs for the next 14.0 days since TLE Epoch: 2/12/2016
Index Date (AURA) Time (AURA) Lat,Lon (AURA) SZA (AURA ) Date (NPP) Time (NPP) Lat,Lon (NPP) SZA (NPP ) Distance(km) Time Diff (sec)
1 02/13/2016 02:52:29 -79.45,-146.57 73.56 02/13/2016 02:52:19 -79.45,-146.49 73.57 1.76 10
2 02/13/2016 03:41:49 79.67, 22.64 106.11 02/13/2016 03:42:57 79.67, 22.62 106.06 0.47 68
3 02/15/2016 18:19:36 79.26, 160.44 105.83 02/15/2016 18:18:31 79.27, 160.55 105.85 2.58 65
4 02/15/2016 19:08:58 -79.46, -30.58 74.48 02/15/2016 19:09:11 -79.45, -30.72 74.46 3.04 13
5 02/18/2016 10:36:04 79.30, -83.45 104.86 02/18/2016 10:35:22 79.30, -83.46 104.89 0.27 42
6 02/18/2016 11:25:23 -79.61, 86.35 75.62 02/18/2016 11:25:58 -79.61, 86.39 75.65 0.84 35
7 02/21/2016 02:52:29 79.39, 33.06 103.77 02/21/2016 02:52:10 79.39, 33.03 103.79 0.64 19
8 02/21/2016 03:41:49 -79.66,-157.37 76.65 02/21/2016 03:42:47 -79.67,-157.34 76.70 0.69 58
9 02/23/2016 18:19:37 -79.17, -20.12 76.88 02/23/2016 18:18:24 -79.16, -20.21 76.81 2.10 73
10 02/23/2016 19:08:53 79.54, 149.98 102.58 02/23/2016 19:08:57 79.54, 150.04 102.56 1.21 4
11 02/26/2016 10:36:00 -79.35, 96.91 78.13 02/26/2016 10:35:10 -79.35, 97.01 78.11 2.14 50




NCC Satellite Simultaneous Nadir Overpasses (SNOs) Prediction Service
